Year,Month,Day,Hour,Minute,Value (Times are PST for temperature in C)
2016,02,24,00,00,3.00
2016,02,24,00,01,3.00
2016,02,24,00,02,3.00
2016,02,24,00,03,3.00
2016,02,24,00,04,3.00
2016,02,24,00,05,3.10
2016,02,24,00,06,3.10
2016,02,24,00,07,3.10
2016,02,24,00,08,3.10
2016,02,24,00,09,3.00
2016,02,24,00,10,3.00
2016,02,24,00,11,3.00
2016,02,24,00,12,3.00
2016,02,24,00,13,3.00
2016,02,24,00,14,3.00
2016,02,24,00,15,3.00
2016,02,24,00,16,3.00
2016,02,24,00,17,3.00
2016,02,24,00,18,3.00
2016,02,24,00,19,3.00
2016,02,24,00,20,3.00
2016,02,24,00,21,3.00
2016,02,24,00,22,3.00
2016,02,24,00,23,3.00
2016,02,24,00,24,3.00
2016,02,24,00,25,3.00
2016,02,24,00,26,2.90
2016,02,24,00,27,2.90
2016,02,24,00,28,2.90
2016,02,24,00,29,2.90
2016,02,24,00,30,2.90
2016,02,24,00,31,2.90
2016,02,24,00,32,2.90
2016,02,24,00,33,2.90
2016,02,24,00,34,2.90
2016,02,24,00,35,2.90
2016,02,24,00,36,2.90
2016,02,24,00,37,2.80
2016,02,24,00,38,2.80
2016,02,24,00,39,2.80
2016,02,24,00,40,2.80
2016,02,24,00,41,2.80
2016,02,24,00,42,2.70
2016,02,24,00,43,2.70
2016,02,24,00,44,2.70
2016,02,24,00,45,2.70
2016,02,24,00,46,2.70
2016,02,24,00,47,2.70
2016,02,24,00,48,2.60
2016,02,24,00,49,2.60
2016,02,24,00,50,2.60
2016,02,24,00,51,2.60
2016,02,24,00,52,2.50
2016,02,24,00,53,2.50
2016,02,24,00,54,2.50
2016,02,24,00,55,2.50
2016,02,24,00,56,2.50
2016,02,24,00,57,2.50
2016,02,24,00,58,2.50
2016,02,24,00,59,2.50
2016,02,24,01,00,2.50
2016,02,24,01,01,2.50
2016,02,24,01,02,2.50
2016,02,24,01,03,2.50
2016,02,24,01,04,2.50
2016,02,24,01,05,2.50
2016,02,24,01,06,2.40
2016,02,24,01,07,2.40
2016,02,24,01,08,2.40
2016,02,24,01,09,2.40
2016,02,24,01,10,2.40
2016,02,24,01,11,2.40
2016,02,24,01,12,2.40
2016,02,24,01,13,2.30
2016,02,24,01,14,2.30
2016,02,24,01,15,2.30
2016,02,24,01,16,2.30
2016,02,24,01,17,2.30
2016,02,24,01,18,2.30
2016,02,24,01,19,2.30
2016,02,24,01,20,2.30
2016,02,24,01,21,2.30
2016,02,24,01,22,2.30
2016,02,24,01,23,2.30
2016,02,24,01,24,2.30
2016,02,24,01,25,2.30
2016,02,24,01,26,2.30
2016,02,24,01,27,2.30
2016,02,24,01,28,2.30
2016,02,24,01,29,2.30
2016,02,24,01,30,2.30
2016,02,24,01,31,2.30
2016,02,24,01,32,2.30
2016,02,24,01,33,2.30
2016,02,24,01,34,2.30
2016,02,24,01,35,2.30
2016,02,24,01,36,2.30
2016,02,24,01,37,2.30
2016,02,24,01,38,2.40
2016,02,24,01,39,2.40
2016,02,24,01,40,2.40
2016,02,24,01,41,2.40
2016,02,24,01,42,2.40
2016,02,24,01,43,2.40
2016,02,24,01,44,2.40
2016,02,24,01,45,2.40
2016,02,24,01,46,2.40
2016,02,24,01,47,2.40
2016,02,24,01,48,2.40
2016,02,24,01,49,2.40
2016,02,24,01,50,2.40
2016,02,24,01,51,2.40
2016,02,24,01,52,2.40
2016,02,24,01,53,2.40
2016,02,24,01,54,2.40
2016,02,24,01,55,2.40
2016,02,24,01,56,2.40
2016,02,24,01,57,2.40
2016,02,24,01,58,2.40
2016,02,24,01,59,2.40
2016,02,24,02,00,2.40
2016,02,24,02,01,2.40
2016,02,24,02,02,2.40
2016,02,24,02,03,2.40
2016,02,24,02,04,2.40
2016,02,24,02,05,2.40
2016,02,24,02,06,2.40
2016,02,24,02,07,2.40
2016,02,24,02,08,2.40
2016,02,24,02,09,2.40
2016,02,24,02,10,2.40
2016,02,24,02,11,2.40
2016,02,24,02,12,2.40
2016,02,24,02,13,2.40
2016,02,24,02,14,2.40
2016,02,24,02,15,2.40
2016,02,24,02,16,2.40
2016,02,24,02,17,2.40
2016,02,24,02,18,2.40
2016,02,24,02,19,2.40
2016,02,24,02,20,2.40
2016,02,24,02,21,2.40
2016,02,24,02,22,2.40
2016,02,24,02,23,2.40
2016,02,24,02,24,2.40
2016,02,24,02,25,2.40
2016,02,24,02,26,2.40
2016,02,24,02,27,2.40
2016,02,24,02,28,2.50
2016,02,24,02,29,2.50
2016,02,24,02,30,2.50
2016,02,24,02,31,2.50
2016,02,24,02,32,2.50
2016,02,24,02,33,2.50
2016,02,24,02,34,2.50
2016,02,24,02,35,2.50
2016,02,24,02,36,2.50
2016,02,24,02,37,2.50
2016,02,24,02,38,2.50
2016,02,24,02,39,2.50
2016,02,24,02,40,2.50
2016,02,24,02,41,2.50
2016,02,24,02,42,2.50
2016,02,24,02,43,2.50
2016,02,24,02,44,2.50
2016,02,24,02,45,2.40
2016,02,24,02,46,2.40
2016,02,24,02,47,2.40
2016,02,24,02,48,2.40
2016,02,24,02,49,2.40
2016,02,24,02,50,2.40
2016,02,24,02,51,2.40
2016,02,24,02,52,2.40
2016,02,24,02,53,2.40
2016,02,24,02,54,2.40
2016,02,24,02,55,2.40
2016,02,24,02,56,2.40
2016,02,24,02,57,2.40
2016,02,24,02,58,2.40
2016,02,24,02,59,2.40
2016,02,24,03,00,2.40
2016,02,24,03,01,2.40
2016,02,24,03,02,2.40
2016,02,24,03,03,2.40
2016,02,24,03,04,2.40
2016,02,24,03,05,2.40
2016,02,24,03,06,2.40
2016,02,24,03,07,2.40
2016,02,24,03,08,2.40
2016,02,24,03,09,2.40
2016,02,24,03,10,2.40
2016,02,24,03,11,2.40
2016,02,24,03,12,2.40
2016,02,24,03,13,2.40
2016,02,24,03,14,2.40
2016,02,24,03,15,2.40
2016,02,24,03,16,2.40
2016,02,24,03,17,2.40
2016,02,24,03,18,2.40
2016,02,24,03,19,2.40
2016,02,24,03,20,2.40
2016,02,24,03,21,2.40
2016,02,24,03,22,2.40
2016,02,24,03,23,2.40
2016,02,24,03,24,2.40
2016,02,24,03,25,2.40
2016,02,24,03,26,2.40
2016,02,24,03,27,2.50
2016,02,24,03,28,2.50
2016,02,24,03,29,2.50
2016,02,24,03,30,2.50
2016,02,24,03,31,2.50
2016,02,24,03,32,2.50
2016,02,24,03,33,2.50
2016,02,24,03,34,2.50
2016,02,24,03,35,2.50
2016,02,24,03,36,2.50
2016,02,24,03,37,2.50
2016,02,24,03,38,2.50
2016,02,24,03,39,2.50
2016,02,24,03,40,2.50
2016,02,24,03,41,2.40
2016,02,24,03,42,2.40
2016,02,24,03,43,2.50
2016,02,24,03,44,2.40
2016,02,24,03,45,2.50
2016,02,24,03,46,2.50
2016,02,24,03,47,2.50
2016,02,24,03,48,2.50
2016,02,24,03,49,2.50
2016,02,24,03,50,2.50
2016,02,24,03,51,2.50
2016,02,24,03,52,2.50
2016,02,24,03,53,2.50
2016,02,24,03,54,2.50
2016,02,24,03,55,2.60
2016,02,24,03,56,2.60
2016,02,24,03,57,2.60
2016,02,24,03,58,2.60
2016,02,24,03,59,2.60
2016,02,24,04,00,2.60
2016,02,24,04,01,2.60
2016,02,24,04,02,2.60
2016,02,24,04,03,2.60
2016,02,24,04,04,2.60
2016,02,24,04,05,2.70
2016,02,24,04,06,2.70
2016,02,24,04,07,2.70
2016,02,24,04,08,2.80
2016,02,24,04,09,2.80
2016,02,24,04,10,2.80
2016,02,24,04,11,2.80
2016,02,24,04,12,2.80
2016,02,24,04,13,2.80
2016,02,24,04,14,2.80
2016,02,24,04,15,2.80
2016,02,24,04,16,2.80
2016,02,24,04,17,2.90
2016,02,24,04,18,2.90
2016,02,24,04,19,2.90
2016,02,24,04,20,2.90
2016,02,24,04,21,2.90
2016,02,24,04,22,2.90
2016,02,24,04,23,2.90
2016,02,24,04,24,3.00
2016,02,24,04,25,3.00
2016,02,24,04,26,2.90
2016,02,24,04,27,2.90
2016,02,24,04,28,2.90
2016,02,24,04,29,2.90
2016,02,24,04,30,2.90
2016,02,24,04,31,2.80
2016,02,24,04,32,2.80
2016,02,24,04,33,2.80
2016,02,24,04,34,2.80
2016,02,24,04,35,2.70
2016,02,24,04,36,2.70
2016,02,24,04,37,2.70
2016,02,24,04,38,2.70
2016,02,24,04,39,2.70
2016,02,24,04,40,2.70
2016,02,24,04,41,2.70
2016,02,24,04,42,2.70
2016,02,24,04,43,2.70
2016,02,24,04,44,2.70
2016,02,24,04,45,2.70
2016,02,24,04,46,2.70
2016,02,24,04,47,2.70
2016,02,24,04,48,2.70
2016,02,24,04,49,2.70
2016,02,24,04,50,2.70
2016,02,24,04,51,2.70
2016,02,24,04,52,2.70
2016,02,24,04,53,2.70
2016,02,24,04,54,2.70
2016,02,24,04,55,2.70
2016,02,24,04,56,2.70
2016,02,24,04,57,2.70
2016,02,24,04,58,2.70
2016,02,24,04,59,2.70
2016,02,24,05,00,2.70
2016,02,24,05,01,2.70
2016,02,24,05,02,2.70
2016,02,24,05,03,2.70
2016,02,24,05,04,2.70
2016,02,24,05,05,2.70
2016,02,24,05,06,2.70
2016,02,24,05,07,2.70
2016,02,24,05,08,2.70
2016,02,24,05,09,2.70
2016,02,24,05,10,2.70
2016,02,24,05,11,2.70
2016,02,24,05,12,2.70
2016,02,24,05,13,2.70
2016,02,24,05,14,2.70
2016,02,24,05,15,2.70
2016,02,24,05,16,2.80
2016,02,24,05,17,2.80
2016,02,24,05,18,2.80
2016,02,24,05,19,2.80
2016,02,24,05,20,2.80
2016,02,24,05,21,2.80
2016,02,24,05,22,2.80
2016,02,24,05,23,2.80
2016,02,24,05,24,2.80
2016,02,24,05,25,2.80
2016,02,24,05,26,2.80
2016,02,24,05,27,2.80
2016,02,24,05,28,2.80
2016,02,24,05,29,2.80
2016,02,24,05,30,2.80
2016,02,24,05,31,2.80
2016,02,24,05,32,2.80
2016,02,24,05,33,2.80
2016,02,24,05,34,2.80
2016,02,24,05,35,2.80
2016,02,24,05,36,2.80
2016,02,24,05,37,2.80
2016,02,24,05,38,2.80
2016,02,24,05,39,2.80
2016,02,24,05,40,2.80
2016,02,24,05,41,2.80
2016,02,24,05,42,2.80
2016,02,24,05,43,2.80
2016,02,24,05,44,2.80
2016,02,24,05,45,2.80
2016,02,24,05,46,2.80
2016,02,24,05,47,2.80
2016,02,24,05,48,2.80
2016,02,24,05,49,2.80
2016,02,24,05,50,2.80
2016,02,24,05,51,2.80
2016,02,24,05,52,2.80
2016,02,24,05,53,2.80
2016,02,24,05,54,2.80
2016,02,24,05,55,2.80
2016,02,24,05,56,2.80
2016,02,24,05,57,2.80
2016,02,24,05,58,2.90
2016,02,24,05,59,2.90
2016,02,24,06,00,2.90
2016,02,24,06,01,2.90
2016,02,24,06,02,3.00
2016,02,24,06,03,3.00
2016,02,24,06,04,3.00
2016,02,24,06,05,3.10
2016,02,24,06,06,3.10
2016,02,24,06,07,3.10
2016,02,24,06,08,3.10
2016,02,24,06,09,3.10
2016,02,24,06,10,3.10
2016,02,24,06,11,3.10
2016,02,24,06,12,3.10
2016,02,24,06,13,3.10
2016,02,24,06,14,3.20
2016,02,24,06,15,3.20
2016,02,24,06,16,3.20
2016,02,24,06,17,3.20
2016,02,24,06,18,3.20
2016,02,24,06,19,3.20
2016,02,24,06,20,3.30
2016,02,24,06,21,3.30
2016,02,24,06,22,3.30
2016,02,24,06,23,3.30
2016,02,24,06,24,3.30
2016,02,24,06,25,3.30
2016,02,24,06,26,3.30
2016,02,24,06,27,3.30
2016,02,24,06,28,3.30
2016,02,24,06,29,3.30
2016,02,24,06,30,3.30
2016,02,24,06,31,3.30
2016,02,24,06,32,3.30
2016,02,24,06,33,3.20
2016,02,24,06,34,3.20
2016,02,24,06,35,3.20
2016,02,24,06,36,3.20
2016,02,24,06,37,3.20
2016,02,24,06,38,3.20
2016,02,24,06,39,3.20
2016,02,24,06,40,3.20
2016,02,24,06,41,3.20
2016,02,24,06,42,3.20
2016,02,24,06,43,3.20
2016,02,24,06,44,3.20
2016,02,24,06,45,3.20
2016,02,24,06,46,3.20
2016,02,24,06,47,3.20
2016,02,24,06,48,3.20
2016,02,24,06,49,3.20
2016,02,24,06,50,3.20
2016,02,24,06,51,3.20
2016,02,24,06,52,3.20
2016,02,24,06,53,3.20
2016,02,24,06,54,3.20
2016,02,24,06,55,3.20
2016,02,24,06,56,3.20
2016,02,24,06,57,3.10
2016,02,24,06,58,3.10
2016,02,24,06,59,3.10
2016,02,24,07,00,3.10
2016,02,24,07,01,3.10
2016,02,24,07,02,3.20
2016,02,24,07,03,3.20
2016,02,24,07,04,3.20
2016,02,24,07,05,3.20
2016,02,24,07,06,3.20
2016,02,24,07,07,3.20
2016,02,24,07,08,3.20
2016,02,24,07,09,3.20
2016,02,24,07,10,3.20
2016,02,24,07,11,3.20
2016,02,24,07,12,3.20
2016,02,24,07,13,3.20
2016,02,24,07,14,3.20
2016,02,24,07,15,3.20
2016,02,24,07,16,3.20
2016,02,24,07,17,3.20
2016,02,24,07,18,3.20
2016,02,24,07,19,3.20
2016,02,24,07,20,3.20
2016,02,24,07,21,3.20
2016,02,24,07,22,3.20
2016,02,24,07,23,3.20
2016,02,24,07,24,3.20
2016,02,24,07,25,3.20
2016,02,24,07,26,3.20
2016,02,24,07,27,3.20
2016,02,24,07,28,3.20
2016,02,24,07,29,3.20
2016,02,24,07,30,3.20
2016,02,24,07,31,3.20
2016,02,24,07,32,3.20
2016,02,24,07,33,3.20
2016,02,24,07,34,3.20
2016,02,24,07,35,3.20
2016,02,24,07,36,3.20
2016,02,24,07,37,3.20
2016,02,24,07,38,3.20
2016,02,24,07,39,3.20
2016,02,24,07,40,3.20
2016,02,24,07,41,3.20
2016,02,24,07,42,3.20
2016,02,24,07,43,3.20
2016,02,24,07,44,3.30
2016,02,24,07,45,3.30
2016,02,24,07,46,3.30
2016,02,24,07,47,3.30
2016,02,24,07,48,3.30
2016,02,24,07,49,3.30
2016,02,24,07,50,3.30
2016,02,24,07,51,3.40
2016,02,24,07,52,3.40
2016,02,24,07,53,3.40
2016,02,24,07,54,3.40
2016,02,24,07,55,3.40
2016,02,24,07,56,3.40
2016,02,24,07,57,3.40
2016,02,24,07,58,3.40
2016,02,24,07,59,3.50
2016,02,24,08,00,3.50
2016,02,24,08,01,3.50
2016,02,24,08,02,3.50
2016,02,24,08,03,3.50
2016,02,24,08,04,3.60
2016,02,24,08,05,3.60
2016,02,24,08,06,3.60
2016,02,24,08,07,3.60
2016,02,24,08,08,3.60
2016,02,24,08,09,3.70
2016,02,24,08,10,3.70
2016,02,24,08,11,3.70
2016,02,24,08,12,3.70
2016,02,24,08,13,3.70
2016,02,24,08,14,3.80
2016,02,24,08,15,3.80
2016,02,24,08,16,3.80
2016,02,24,08,17,3.80
2016,02,24,08,18,3.80
2016,02,24,08,19,3.90
2016,02,24,08,20,3.90
2016,02,24,08,21,4.00
2016,02,24,08,22,4.00
2016,02,24,08,23,4.00
2016,02,24,08,24,4.10
2016,02,24,08,25,4.10
2016,02,24,08,26,4.10
2016,02,24,08,27,4.10
2016,02,24,08,28,4.20
2016,02,24,08,29,4.20
2016,02,24,08,30,4.20
2016,02,24,08,31,4.30
2016,02,24,08,32,4.30
2016,02,24,08,33,4.30
2016,02,24,08,34,4.30
2016,02,24,08,35,4.40
2016,02,24,08,36,4.40
2016,02,24,08,37,4.50
2016,02,24,08,38,4.50
2016,02,24,08,39,4.60
2016,02,24,08,40,4.60
2016,02,24,08,41,4.70
2016,02,24,08,42,4.70
2016,02,24,08,43,4.70
2016,02,24,08,44,4.70
2016,02,24,08,45,4.80
2016,02,24,08,46,4.80
2016,02,24,08,47,4.80
2016,02,24,08,48,4.80
2016,02,24,08,49,4.80
2016,02,24,08,50,4.90
2016,02,24,08,51,4.90
2016,02,24,08,52,5.00
2016,02,24,08,53,5.00
2016,02,24,08,54,5.00
2016,02,24,08,55,5.10
2016,02,24,08,56,5.10
2016,02,24,08,57,5.10
2016,02,24,08,58,5.10
2016,02,24,08,59,5.10
2016,02,24,09,00,5.20
2016,02,24,09,01,5.20
2016,02,24,09,02,5.20
2016,02,24,09,03,5.30
2016,02,24,09,04,5.30
2016,02,24,09,05,5.30
2016,02,24,09,06,5.40
2016,02,24,09,07,5.40
2016,02,24,09,08,5.40
2016,02,24,09,09,5.50
2016,02,24,09,10,5.50
2016,02,24,09,11,5.50
2016,02,24,09,12,5.60
2016,02,24,09,13,5.60
2016,02,24,09,14,5.60
2016,02,24,09,15,5.60
2016,02,24,09,16,5.70
2016,02,24,09,17,5.70
2016,02,24,09,18,5.70
2016,02,24,09,19,5.80
2016,02,24,09,20,5.80
2016,02,24,09,21,5.80
2016,02,24,09,22,5.80
2016,02,24,09,23,5.90
2016,02,24,09,24,5.90
2016,02,24,09,25,5.80
2016,02,24,09,26,5.90
2016,02,24,09,27,5.90
2016,02,24,09,28,5.90
2016,02,24,09,29,5.90
2016,02,24,09,30,6.00
2016,02,24,09,31,6.00
2016,02,24,09,32,6.10
2016,02,24,09,33,6.10
2016,02,24,09,34,6.10
2016,02,24,09,35,6.10
2016,02,24,09,36,6.20
2016,02,24,09,37,6.20
2016,02,24,09,38,6.20
2016,02,24,09,39,6.30
2016,02,24,09,40,6.30
2016,02,24,09,41,6.40
2016,02,24,09,42,6.40
2016,02,24,09,43,6.50
2016,02,24,09,44,6.60
2016,02,24,09,45,6.60
2016,02,24,09,46,6.70
2016,02,24,09,47,6.70
2016,02,24,09,48,6.70
2016,02,24,09,49,6.80
2016,02,24,09,50,6.80
2016,02,24,09,51,6.80
2016,02,24,09,52,6.80
2016,02,24,09,53,6.80
2016,02,24,09,54,6.80
2016,02,24,09,55,6.80
2016,02,24,09,56,6.80
2016,02,24,09,57,6.90
2016,02,24,09,58,6.90
2016,02,24,09,59,6.90
2016,02,24,10,00,7.00
2016,02,24,10,01,7.00
2016,02,24,10,02,7.00
2016,02,24,10,03,7.00
2016,02,24,10,04,7.10
2016,02,24,10,05,7.10
2016,02,24,10,06,7.20
2016,02,24,10,07,7.20
2016,02,24,10,08,7.20
2016,02,24,10,09,7.20
2016,02,24,10,10,7.30
2016,02,24,10,11,7.40
2016,02,24,10,12,7.40
2016,02,24,10,13,7.50
2016,02,24,10,14,7.70
2016,02,24,10,15,7.80
2016,02,24,10,16,7.80
2016,02,24,10,17,7.90
2016,02,24,10,18,8.00
2016,02,24,10,19,8.10
2016,02,24,10,20,8.20
2016,02,24,10,21,8.40
2016,02,24,10,22,8.50
2016,02,24,10,23,8.70
2016,02,24,10,24,8.80
2016,02,24,10,25,8.90
2016,02,24,10,26,9.00
2016,02,24,10,27,9.10
2016,02,24,10,28,9.10
2016,02,24,10,29,9.20
2016,02,24,10,30,9.20
2016,02,24,10,31,9.20
2016,02,24,10,32,9.30
2016,02,24,10,33,9.30
2016,02,24,10,34,9.30
2016,02,24,10,35,9.30
2016,02,24,10,36,9.30
2016,02,24,10,37,9.30
2016,02,24,10,38,9.30
2016,02,24,10,39,9.40
2016,02,24,10,40,9.40
2016,02,24,10,41,9.40
2016,02,24,10,42,9.40
2016,02,24,10,43,9.50
2016,02,24,10,44,9.50
2016,02,24,10,45,9.50
2016,02,24,10,46,9.50
2016,02,24,10,47,9.60
2016,02,24,10,48,9.60
2016,02,24,10,49,9.60
2016,02,24,10,50,9.60
2016,02,24,10,51,9.60
2016,02,24,10,52,9.70
2016,02,24,10,53,9.70
2016,02,24,10,54,9.70
2016,02,24,10,55,9.70
2016,02,24,10,56,9.70
2016,02,24,10,57,9.70
2016,02,24,10,58,9.70
2016,02,24,10,59,9.70
2016,02,24,11,00,9.70
2016,02,24,11,01,9.70
2016,02,24,11,02,9.70
2016,02,24,11,03,9.70
2016,02,24,11,04,9.70
2016,02,24,11,05,9.70
2016,02,24,11,06,9.70
2016,02,24,11,07,9.70
2016,02,24,11,08,9.70
2016,02,24,11,09,9.70
2016,02,24,11,10,9.70
2016,02,24,11,11,9.60
2016,02,24,11,12,9.70
2016,02,24,11,13,9.70
2016,02,24,11,14,9.70
2016,02,24,11,15,9.80
2016,02,24,11,16,9.80
2016,02,24,11,17,9.80
2016,02,24,11,18,9.90
2016,02,24,11,19,9.90
2016,02,24,11,20,9.90
2016,02,24,11,21,10.00
2016,02,24,11,22,10.10
2016,02,24,11,23,10.10
2016,02,24,11,24,10.10
2016,02,24,11,25,10.10
2016,02,24,11,26,10.10
2016,02,24,11,27,10.20
2016,02,24,11,28,10.20
2016,02,24,11,29,10.20
2016,02,24,11,30,10.30
2016,02,24,11,31,10.30
2016,02,24,11,32,10.40
2016,02,24,11,33,10.40
2016,02,24,11,34,10.40
2016,02,24,11,35,10.40
2016,02,24,11,36,10.30
2016,02,24,11,37,10.30
2016,02,24,11,38,10.30
2016,02,24,11,39,10.30
2016,02,24,11,40,10.30
2016,02,24,11,41,10.30
2016,02,24,11,42,10.30
2016,02,24,11,43,10.30
2016,02,24,11,44,10.30
2016,02,24,11,45,10.30
2016,02,24,11,46,10.40
2016,02,24,11,47,10.40
2016,02,24,11,48,10.40
2016,02,24,11,49,10.40
2016,02,24,11,50,10.50
2016,02,24,11,51,10.50
2016,02,24,11,52,10.60
2016,02,24,11,53,10.60
2016,02,24,11,54,10.60
2016,02,24,11,55,10.50
2016,02,24,11,56,10.50
2016,02,24,11,57,10.40
2016,02,24,11,58,10.40
2016,02,24,11,59,10.40
2016,02,24,12,00,10.40
2016,02,24,12,01,10.40
2016,02,24,12,02,10.40
2016,02,24,12,03,10.50
2016,02,24,12,04,10.60
2016,02,24,12,05,10.60
2016,02,24,12,06,10.60
2016,02,24,12,07,10.70
2016,02,24,12,08,10.70
2016,02,24,12,09,10.70
2016,02,24,12,10,10.70
2016,02,24,12,11,10.70
2016,02,24,12,12,10.80
2016,02,24,12,13,10.80
2016,02,24,12,14,10.80
2016,02,24,12,15,10.90
2016,02,24,12,16,10.90
2016,02,24,12,17,11.00
2016,02,24,12,18,11.00
2016,02,24,12,19,11.00
2016,02,24,12,20,11.10
2016,02,24,12,21,11.10
2016,02,24,12,22,11.10
2016,02,24,12,23,11.10
2016,02,24,12,24,11.10
2016,02,24,12,25,11.20
2016,02,24,12,26,11.20
2016,02,24,12,27,11.20
2016,02,24,12,28,11.20
2016,02,24,12,29,11.20
2016,02,24,12,30,11.20
2016,02,24,12,31,11.20
2016,02,24,12,32,11.30
2016,02,24,12,33,11.30
2016,02,24,12,34,11.30
2016,02,24,12,35,11.30
2016,02,24,12,36,11.30
2016,02,24,12,37,11.40
2016,02,24,12,38,11.40
2016,02,24,12,39,11.40
2016,02,24,12,40,11.50
2016,02,24,12,41,11.50
2016,02,24,12,42,11.60
2016,02,24,12,43,11.60
2016,02,24,12,44,11.70
2016,02,24,12,45,11.70
2016,02,24,12,46,11.50
2016,02,24,12,47,11.40
2016,02,24,12,48,11.30
2016,02,24,12,49,11.30
2016,02,24,12,50,11.40
2016,02,24,12,51,11.40
2016,02,24,12,52,11.50
2016,02,24,12,53,11.50
2016,02,24,12,54,11.50
2016,02,24,12,55,11.60
2016,02,24,12,56,11.60
2016,02,24,12,57,11.60
2016,02,24,12,58,11.60
2016,02,24,12,59,11.60
2016,02,24,13,00,11.60
2016,02,24,13,01,11.70
2016,02,24,13,02,11.70
2016,02,24,13,03,11.70
2016,02,24,13,04,11.70
2016,02,24,13,05,11.60
2016,02,24,13,06,11.50
2016,02,24,13,07,11.50
2016,02,24,13,08,11.50
2016,02,24,13,09,11.50
2016,02,24,13,10,11.50
2016,02,24,13,11,11.50
2016,02,24,13,12,11.50
2016,02,24,13,13,11.50
2016,02,24,13,14,11.40
2016,02,24,13,15,11.40
2016,02,24,13,16,11.40
2016,02,24,13,17,11.40
2016,02,24,13,18,11.40
2016,02,24,13,19,11.40
2016,02,24,13,20,11.40
2016,02,24,13,21,11.30
2016,02,24,13,22,11.30
2016,02,24,13,23,11.30
2016,02,24,13,24,11.40
2016,02,24,13,25,11.50
2016,02,24,13,26,11.50
2016,02,24,13,27,11.60
2016,02,24,13,28,11.60
2016,02,24,13,29,11.70
2016,02,24,13,30,11.70
2016,02,24,13,31,11.70
2016,02,24,13,32,11.80
2016,02,24,13,33,11.80
2016,02,24,13,34,11.70
2016,02,24,13,35,11.70
2016,02,24,13,36,11.70
2016,02,24,13,37,11.70
2016,02,24,13,38,11.80
2016,02,24,13,39,11.80
2016,02,24,13,40,11.80
2016,02,24,13,41,11.70
2016,02,24,13,42,11.70
2016,02,24,13,43,11.70
2016,02,24,13,44,11.70
2016,02,24,13,45,11.70
2016,02,24,13,46,11.70
2016,02,24,13,47,11.70
2016,02,24,13,48,11.80
2016,02,24,13,49,11.80
2016,02,24,13,50,11.80
2016,02,24,13,51,11.70
2016,02,24,13,52,11.70
2016,02,24,13,53,11.70
2016,02,24,13,54,11.70
2016,02,24,13,55,11.70
2016,02,24,13,56,11.70
2016,02,24,13,57,11.60
2016,02,24,13,58,11.60
2016,02,24,13,59,11.50
2016,02,24,14,00,11.50
2016,02,24,14,01,11.50
2016,02,24,14,02,11.40
2016,02,24,14,03,11.40
2016,02,24,14,04,11.40
2016,02,24,14,05,11.40
2016,02,24,14,06,11.40
2016,02,24,14,07,11.40
2016,02,24,14,08,11.50
2016,02,24,14,09,11.50
2016,02,24,14,10,11.60
2016,02,24,14,11,11.60
2016,02,24,14,12,11.70
2016,02,24,14,13,11.80
2016,02,24,14,14,11.80
2016,02,24,14,15,11.80
2016,02,24,14,16,11.80
2016,02,24,14,17,11.80
2016,02,24,14,18,11.80
2016,02,24,14,19,11.80
2016,02,24,14,20,11.90
2016,02,24,14,21,11.90
2016,02,24,14,22,12.00
2016,02,24,14,23,12.10
2016,02,24,14,24,12.00
2016,02,24,14,25,12.10
2016,02,24,14,26,12.10
2016,02,24,14,27,12.10
2016,02,24,14,28,12.10
2016,02,24,14,29,12.20
2016,02,24,14,30,12.20
2016,02,24,14,31,12.20
2016,02,24,14,32,12.20
2016,02,24,14,33,12.20
2016,02,24,14,34,12.10
2016,02,24,14,35,12.10
2016,02,24,14,36,12.10
2016,02,24,14,37,12.10
2016,02,24,14,38,12.10
2016,02,24,14,39,12.10
2016,02,24,14,40,12.10
2016,02,24,14,41,12.10
2016,02,24,14,42,12.10
2016,02,24,14,43,12.10
2016,02,24,14,44,12.10
2016,02,24,14,45,12.10
2016,02,24,14,46,12.10
2016,02,24,14,47,12.00
2016,02,24,14,48,12.00
2016,02,24,14,49,12.00
2016,02,24,14,50,12.10
2016,02,24,14,51,12.10
2016,02,24,14,52,12.10
2016,02,24,14,53,12.10
2016,02,24,14,54,12.10
2016,02,24,14,55,12.10
2016,02,24,14,56,12.10
2016,02,24,14,57,12.10
2016,02,24,14,58,12.20
2016,02,24,14,59,12.10
2016,02,24,15,00,12.20
2016,02,24,15,01,12.20
2016,02,24,15,02,12.20
2016,02,24,15,03,12.20
2016,02,24,15,04,12.10
2016,02,24,15,05,12.10
2016,02,24,15,06,12.10
2016,02,24,15,07,12.10
2016,02,24,15,08,12.10
2016,02,24,15,09,12.20
2016,02,24,15,10,12.20
2016,02,24,15,11,12.30
2016,02,24,15,12,12.40
2016,02,24,15,13,12.40
2016,02,24,15,14,12.50
2016,02,24,15,15,12.50
2016,02,24,15,16,12.50
2016,02,24,15,17,12.60
2016,02,24,15,18,12.60
2016,02,24,15,19,12.70
2016,02,24,15,20,12.70
2016,02,24,15,21,12.70
2016,02,24,15,22,12.70
2016,02,24,15,23,12.70
2016,02,24,15,24,12.60
2016,02,24,15,25,12.60
2016,02,24,15,26,12.60
2016,02,24,15,27,12.60
2016,02,24,15,28,12.50
2016,02,24,15,29,12.50
2016,02,24,15,30,12.50
2016,02,24,15,31,12.50
2016,02,24,15,32,12.50
2016,02,24,15,33,12.50
2016,02,24,15,34,12.50
2016,02,24,15,35,12.50
2016,02,24,15,36,12.50
2016,02,24,15,37,12.40
2016,02,24,15,38,12.40
2016,02,24,15,39,12.40
2016,02,24,15,40,12.40
2016,02,24,15,41,12.40
2016,02,24,15,42,12.30
2016,02,24,15,43,12.20
2016,02,24,15,44,12.20
2016,02,24,15,45,12.20
2016,02,24,15,46,12.20
2016,02,24,15,47,12.20
2016,02,24,15,48,12.20
2016,02,24,15,49,12.20
2016,02,24,15,50,12.20
2016,02,24,15,51,12.20
2016,02,24,15,52,12.20
2016,02,24,15,53,12.30
2016,02,24,15,54,12.30
2016,02,24,15,55,12.30
2016,02,24,15,56,12.30
2016,02,24,15,57,12.20
2016,02,24,15,58,12.20
2016,02,24,15,59,12.20
2016,02,24,16,00,12.20
2016,02,24,16,01,12.10
2016,02,24,16,02,12.10
2016,02,24,16,03,12.10
2016,02,24,16,04,12.10
2016,02,24,16,05,12.00
2016,02,24,16,06,12.00
2016,02,24,16,07,12.00
2016,02,24,16,08,12.10
2016,02,24,16,09,12.10
2016,02,24,16,10,12.10
2016,02,24,16,11,12.10
2016,02,24,16,12,12.10
2016,02,24,16,13,12.10
2016,02,24,16,14,12.10
2016,02,24,16,15,12.10
2016,02,24,16,16,12.10
2016,02,24,16,17,12.00
2016,02,24,16,18,12.00
2016,02,24,16,19,11.90
2016,02,24,16,20,11.90
2016,02,24,16,21,11.80
2016,02,24,16,22,11.80
2016,02,24,16,23,11.70
2016,02,24,16,24,11.60
2016,02,24,16,25,11.50
2016,02,24,16,26,11.50
2016,02,24,16,27,11.40
2016,02,24,16,28,11.30
2016,02,24,16,29,11.30
2016,02,24,16,30,11.30
2016,02,24,16,31,11.30
2016,02,24,16,32,11.30
2016,02,24,16,33,11.30
2016,02,24,16,34,11.40
2016,02,24,16,35,11.40
2016,02,24,16,36,11.50
2016,02,24,16,37,11.60
2016,02,24,16,38,11.60
2016,02,24,16,39,11.70
2016,02,24,16,40,11.70
2016,02,24,16,41,11.80
2016,02,24,16,42,11.80
2016,02,24,16,43,11.90
2016,02,24,16,44,11.90
2016,02,24,16,45,11.90
2016,02,24,16,46,12.00
2016,02,24,16,47,12.00
2016,02,24,16,48,12.00
2016,02,24,16,49,11.90
2016,02,24,16,50,11.90
2016,02,24,16,51,11.90
2016,02,24,16,52,11.80
2016,02,24,16,53,11.70
2016,02,24,16,54,11.70
2016,02,24,16,55,11.60
2016,02,24,16,56,11.50
2016,02,24,16,57,11.50
2016,02,24,16,58,11.40
2016,02,24,16,59,11.30
2016,02,24,17,00,11.20
2016,02,24,17,01,11.20
2016,02,24,17,02,11.10
2016,02,24,17,03,11.10
2016,02,24,17,04,11.00
2016,02,24,17,05,10.90
2016,02,24,17,06,10.80
2016,02,24,17,07,10.80
2016,02,24,17,08,10.70
2016,02,24,17,09,10.60
2016,02,24,17,10,10.50
2016,02,24,17,11,10.40
2016,02,24,17,12,10.30
2016,02,24,17,13,10.20
2016,02,24,17,14,10.10
2016,02,24,17,15,10.10
2016,02,24,17,16,10.00
2016,02,24,17,17,10.00
2016,02,24,17,18,9.90
2016,02,24,17,19,9.80
2016,02,24,17,20,9.70
2016,02,24,17,21,9.70
2016,02,24,17,22,9.70
2016,02,24,17,23,9.60
2016,02,24,17,24,9.60
2016,02,24,17,25,9.60
2016,02,24,17,26,9.60
2016,02,24,17,27,9.60
2016,02,24,17,28,9.50
2016,02,24,17,29,9.50
2016,02,24,17,30,9.40
2016,02,24,17,31,9.40
2016,02,24,17,32,9.40
2016,02,24,17,33,9.40
2016,02,24,17,34,9.40
2016,02,24,17,35,9.40
2016,02,24,17,36,9.30
2016,02,24,17,37,9.30
2016,02,24,17,38,9.30
2016,02,24,17,39,9.30
2016,02,24,17,40,9.30
2016,02,24,17,41,9.30
2016,02,24,17,42,9.30
2016,02,24,17,43,9.30
2016,02,24,17,44,9.20
2016,02,24,17,45,9.20
2016,02,24,17,46,9.20
2016,02,24,17,47,9.20
2016,02,24,17,48,9.10
2016,02,24,17,49,9.10
2016,02,24,17,50,9.10